Tracking 30923 objects as of 1-Jul-2025
HD Live streaming from Space Station
objects crossing your sky now

NOAA 16 DEB

Track NOAA 16 DEB now!
10-day predictions


NORAD ID: 41360
Int'l Code: 2000-055JD
Perigee: 786.1 km
Apogee: 816.7 km
Inclination: 98.9 °
Period: 100.8 minutes
Semi major axis: 7172 km
RCS: Unknown
Launch date: September 21, 2000
Source: United States (US)
Launch site: AIR FORCE WESTERN TEST RANGE (AFWTR)

Note: This is SATELLITE DEBRIS
Your satellite tracking list
Your tracking list is empty




NASA's NSSDC Master Catalog

Two Line Element Set (TLE):
1 41360U 00055JD  25181.55517074  .00002809  00000-0  11204-2 0  9994
2 41360  98.8804 294.9028 0021347 317.2062  42.7456 14.29235843486934
Source of the keplerian elements: AFSPC